| time (UTC) | temp C | wind direction | speed KPH | gust KPH | rain 1hr cm | rain 24hr cm | rain mn cm | humidity % | barometer mb |
| 20260502224211 | 8 | 220 | 0.0 | 3.2 | 0.00 | 0.00 | 0.00 | 42 | 1015.5 |
| 20260502223709 | 8 | 181 | 4.8 | 12.9 | 0.00 | 0.00 | 0.00 | 45 | 1015.5 |
| 20260502223207 | 8 | 34 | 0.0 | 6.4 | 0.00 | 0.00 | 0.00 | 42 | 1015.5 |
| 20260502222704 | 8 | 65 | 1.6 | 4.8 | 0.00 | 0.00 | 0.00 | 48 | 1015.4 |
| 20260502222201 | 8 | 247 | 8.0 | 11.3 | 0.00 | 0.00 | 0.00 | 43 | 1015.3 |
| 20260502221656 | 8 | 235 | 6.4 | 9.7 | 0.00 | 0.00 | 0.00 | 44 | 1015.3 |
| 20260502221153 | 8 | 110 | 1.6 | 14.5 | 0.00 | 0.00 | 0.00 | 42 | 1015.2 |
| 20260502220649 | 8 | 265 | 3.2 | 14.5 | 0.00 | 0.00 | 0.00 | 44 | 1015.3 |
| 20260502220146 | 9 | 158 | 6.4 | 11.3 | 0.00 | 0.00 | 0.00 | 44 | 1015.2 |
| 20260502215643 | 9 | 175 | 0.0 | 0.0 | 0.00 | 0.00 | 0.00 | 43 | 1015.3 |
| 20260502215139 | 9 | 171 | 6.4 | 9.7 | 0.00 | 0.00 | 0.00 | 42 | 1015.1 |
| 20260502214636 | 9 | 189 | 1.6 | 3.2 | 0.00 | 0.00 | 0.00 | 42 | 1015.2 |
| 20260502214128 | 9 | 285 | 0.0 | 4.8 | 0.00 | 0.00 | 0.00 | 41 | 1015.2 |
| 20260502213626 | 9 | 350 | 3.2 | 6.4 | 0.00 | 0.00 | 0.00 | 42 | 1015.1 |
| 20260502213123 | 9 | 169 | 6.4 | 6.4 | 0.00 | 0.00 | 0.00 | 45 | 1015.3 |
| 20260502212621 | 9 | 217 | 3.2 | 6.4 | 0.00 | 0.00 | 0.00 | 44 | 1015.2 |
| 20260502212120 | 8 | 165 | 8.0 | 16.1 | 0.00 | 0.00 | 0.00 | 46 | 1015.3 |
| 20260502211614 | 8 | 191 | 12.9 | 16.1 | 0.00 | 0.00 | 0.00 | 44 | 1015.1 |
| 20260502211111 | 9 | 251 | 8.0 | 17.7 | 0.00 | 0.00 | 0.00 | 45 | 1015.1 |
| 20260502210609 | 9 | 44 | 3.2 | 6.4 | 0.00 | 0.00 | 0.00 | 44 | 1015.0 |
| 20260502210106 | 9 | 172 | 3.2 | 11.3 | 0.00 | 0.00 | 0.00 | 42 | 1015.1 |
| 20260502205603 | 10 | 255 | 4.8 | 11.3 | 0.00 | 0.00 | 0.00 | 44 | 1015.1 |
| 20260502205100 | 9 | 283 | 3.2 | 6.4 | 0.00 | 0.00 | 0.00 | 40 | 1015.0 |
| 20260502204556 | 9 | 285 | 4.8 | 12.9 | 0.00 | 0.00 | 0.00 | 42 | 1015.0 |
| 20260502204054 | 9 | 102 | 1.6 | 4.8 | 0.00 | 0.00 | 0.00 | 44 | 1014.8 |
| 20260502203551 | 9 | 179 | 0.0 | 6.4 | 0.00 | 0.00 | 0.00 | 46 | 1015.2 |
| 20260502203048 | 9 | 239 | 6.4 | 9.7 | 0.00 | 0.00 | 0.00 | 46 | 1015.3 |
| 20260502202543 | 9 | 207 | 4.8 | 6.4 | 0.00 | 0.00 | 0.00 | 45 | 1015.2 |
| 20260502202042 | 9 | 197 | 6.4 | 11.3 | 0.00 | 0.00 | 0.00 | 46 | 1015.5 |
| 20260502201537 | 9 | 245 | 4.8 | 11.3 | 0.00 | 0.00 | 0.00 | 44 | 1015.4 |
| 20260502201034 | 9 | 90 | 3.2 | 4.8 | 0.00 | 0.00 | 0.00 | 48 | 1015.3 |
| 20260502200530 | 9 | 297 | 1.6 | 4.8 | 0.00 | 0.00 | 0.00 | 43 | 1015.5 |
| 20260502200028 | 9 | 227 | 3.2 | 11.3 | 0.00 | 0.00 | 0.00 | 42 | 1015.4 |
| 20260502195525 | 9 | 188 | 0.0 | 1.6 | 0.00 | 0.00 | 0.00 | 45 | 1015.5 |
| 20260502195021 | 9 | 306 | 4.8 | 9.7 | 0.00 | 0.00 | 0.00 | 44 | 1015.5 |
| 20260502194518 | 9 | 189 | 6.4 | 12.9 | 0.00 | 0.00 | 0.00 | 45 | 1015.6 |
| 20260502194014 | 9 | 203 | 6.4 | 11.3 | 0.00 | 0.00 | 0.00 | 47 | 1015.6 |
| 20260502193512 | 8 | 270 | 8.0 | 14.5 | 0.00 | 0.00 | 0.00 | 45 | 1015.8 |
| 20260502193008 | 9 | 249 | 1.6 | 6.4 | 0.00 | 0.00 | 0.00 | 45 | 1015.6 |
| 20260502192504 | 9 | 196 | 4.8 | 6.4 | 0.00 | 0.00 | 0.00 | 44 | 1015.6 |
| 20260502192001 | 9 | 133 | 6.4 | 12.9 | 0.00 | 0.00 | 0.00 | 46 | 1015.7 |
| 20260502191459 | 9 | 210 | 8.0 | 17.7 | 0.00 | 0.00 | 0.00 | 48 | 1015.8 |
| 20260502190956 | 9 | 205 | 4.8 | 6.4 | 0.00 | 0.00 | 0.00 | 48 | 1015.9 |
| 20260502190453 | 9 | 151 | 1.6 | 4.8 | 0.00 | 0.00 | 0.00 | 42 | 1015.8 |
| 20260502185949 | 9 | 125 | 0.0 | 4.8 | 0.00 | 0.00 | 0.00 | 43 | 1015.9 |
| 20260502185445 | 10 | 211 | 8.0 | 11.3 | 0.00 | 0.00 | 0.00 | 46 | 1015.9 |
| 20260502184942 | 10 | 179 | 8.0 | 11.3 | 0.00 | 0.00 | 0.00 | 45 | 1016.1 |
| 20260502184437 | 10 | 336 | 4.8 | 14.5 | 0.00 | 0.00 | 0.00 | 44 | 1015.8 |
| 20260502183934 | 10 | 322 | 1.6 | 3.2 | 0.00 | 0.00 | 0.00 | 45 | 1015.9 |
| 20260502183430 | 10 | 268 | 3.2 | 6.4 | 0.00 | 0.00 | 0.00 | 46 | 1016.1 |
| 20260502182926 | 10 | 5 | 1.6 | 3.2 | 0.00 | 0.00 | 0.00 | 47 | 1015.9 |
| 20260502182421 | 10 | 290 | 4.8 | 6.4 | 0.00 | 0.00 | 0.00 | 46 | 1016.2 |
| 20260502181918 | 10 | 323 | 6.4 | 6.4 | 0.00 | 0.00 | 0.00 | 44 | 1015.9 |
| 20260502181416 | 10 | 50 | 4.8 | 4.8 | 0.00 | 0.00 | 0.00 | 48 | 1016.3 |
| 20260502180914 | 10 | 14 | 3.2 | 6.4 | 0.00 | 0.00 | 0.00 | 44 | 1016.0 |
| 20260502180411 | 10 | 167 | 6.4 | 9.7 | 0.00 | 0.00 | 0.00 | 49 | 1016.2 |
| 20260502170330 | 9 | 237 | 3.2 | 16.1 | 0.00 | 0.00 | 0.00 | 51 | 1016.4 |
| 20260502164318 | 8 | 266 | 3.2 | 6.4 | 0.00 | 0.00 | 0.00 | 48 | 1016.7 |
| 20260502163814 | 8 | 95 | 4.8 | 6.4 | 0.00 | 0.00 | 0.00 | 48 | 1016.7 |
| 20260502163310 | 8 | 210 | 8.0 | 9.7 | 0.00 | 0.00 | 0.00 | 48 | 1016.7 |
| 20260502162808 | 8 | 306 | 1.6 | 3.2 | 0.00 | 0.00 | 0.00 | 50 | 1016.9 |
| 20260502162305 | 8 | 270 | 0.0 | 6.4 | 0.00 | 0.00 | 0.00 | 51 | 1016.8 |
| 20260502161801 | 8 | 226 | 3.2 | 4.8 | 0.00 | 0.00 | 0.00 | 50 | 1016.7 |
| 20260502161257 | 8 | 163 | 1.6 | 4.8 | 0.00 | 0.00 | 0.00 | 47 | 1017.0 |
| 20260502160755 | 8 | 165 | 1.6 | 11.3 | 0.00 | 0.00 | 0.00 | 48 | 1016.9 |
| 20260502160249 | 8 | 242 | 8.0 | 11.3 | 0.00 | 0.00 | 0.00 | 52 | 1016.8 |
| 20260502152217 | 8 | 266 | 1.6 | 9.7 | 0.00 | 0.00 | 0.00 | 52 | 1017.1 |
| 20260502151715 | 8 | 224 | 11.3 | 16.1 | 0.00 | 0.00 | 0.00 | 51 | 1017.2 |
| 20260502151212 | 8 | 224 | 3.2 | 4.8 | 0.00 | 0.00 | 0.00 | 48 | 1017.0 |
| 20260502150709 | 8 | 243 | 6.4 | 9.7 | 0.00 | 0.00 | 0.00 | 52 | 1016.9 |
| 20260502150205 | 8 | 67 | 0.0 | 4.8 | 0.00 | 0.00 | 0.00 | 51 | 1016.9 |
| 20260502140129 | 7 | 255 | 0.0 | 4.8 | 0.00 | 0.00 | 0.00 | 51 | 1016.8 |
| 20260502130554 | 6 | 108 | 1.6 | 14.5 | 0.00 | 0.00 | 0.00 | 62 | 1016.8 |
| 20260502123537 | 5 | 36 | 3.2 | 4.8 | 0.00 | 0.00 | 0.00 | 68 | 1016.7 |
| 20260502123034 | 5 | 21 | 4.8 | 12.9 | 0.00 | 0.00 | 0.00 | 65 | 1016.4 |
| 20260502122530 | 5 | 101 | 0.0 | 1.6 | 0.00 | 0.00 | 0.00 | 65 | 1016.7 |
| 20260502122028 | 5 | 55 | 3.2 | 4.8 | 0.00 | 0.00 | 0.00 | 66 | 1016.4 |
| 20260502121525 | 5 | 268 | 1.6 | 3.2 | 0.00 | 0.00 | 0.00 | 67 | 1016.4 |
| 20260502121022 | 5 | 82 | 6.4 | 9.7 | 0.00 | 0.00 | 0.00 | 69 | 1016.3 |
| 20260502120519 | 5 | 48 | 0.0 | 0.0 | 0.00 | 0.00 | 0.00 | 77 | 1016.5 |
| 20260502115513 | 4 | 272 | 0.0 | 0.0 | 0.00 | 0.00 | 0.00 | 81 | 1016.4 |
| 20260502115009 | 4 | 284 | 0.0 | 0.0 | 0.00 | 0.00 | 0.00 | 82 | 1016.7 |
| 20260502114506 | 4 | 273 | 0.0 | 1.6 | 0.00 | 0.00 | 0.00 | 82 | 1016.8 |
| 20260502114003 | 3 | 71 | 0.0 | 3.2 | 0.00 | 0.00 | 0.00 | 82 | 1016.7 |
| 20260502113500 | 3 | 136 | 0.0 | 0.0 | 0.00 | 0.00 | 0.00 | 85 | 1016.8 |
| 20260502112959 | 3 | 225 | 0.0 | 0.0 | 0.00 | 0.00 | 0.00 | 85 | 1016.5 |
| 20260502112456 | 3 | 221 | 0.0 | 1.6 | 0.00 | 0.00 | 0.00 | 83 | 1016.7 |
| 20260502111953 | 3 | 189 | 0.0 | 1.6 | 0.00 | 0.00 | 0.00 | 86 | 1016.7 |
| 20260502111451 | 3 | 180 | 0.0 | 1.6 | 0.00 | 0.00 | 0.00 | 85 | 1016.7 |
| 20260502110948 | 3 | 205 | 1.6 | 1.6 | 0.00 | 0.00 | 0.00 | 82 | 1016.8 |
| 20260502110446 | 3 | 122 | 1.6 | 1.6 | 0.00 | 0.00 | 0.00 | 80 | 1016.7 |
| 20260502105942 | 3 | 122 | 1.6 | 1.6 | 0.00 | 0.00 | 0.00 | 83 | 1016.8 |
| 20260502105440 | 3 | 253 | 1.6 | 1.6 | 0.00 | 0.00 | 0.00 | 85 | 1016.5 |
| 20260502104938 | 3 | 120 | 1.6 | 3.2 | 0.00 | 0.00 | 0.00 | 84 | 1016.7 |
| 20260502104435 | 3 | 181 | 1.6 | 3.2 | 0.00 | 0.00 | 0.00 | 86 | 1017.0 |
| 20260502103932 | 3 | 110 | 0.0 | 0.0 | 0.00 | 0.00 | 0.00 | 83 | 1017.0 |
| 20260502103430 | 3 | 98 | 0.0 | 0.0 | 0.00 | 0.00 | 0.00 | 82 | 1017.1 |
| 20260502102926 | 3 | 94 | 0.0 | 0.0 | 0.00 | 0.00 | 0.00 | 81 | 1017.3 |
| 20260502102423 | 3 | 120 | 1.6 | 1.6 | 0.00 | 0.00 | 0.00 | 81 | 1017.0 |
| 20260502101920 | 3 | 143 | 1.6 | 1.6 | 0.00 | 0.00 | 0.00 | 83 | 1017.0 |
| 20260502101419 | 3 | 253 | 1.6 | 3.2 | 0.00 | 0.00 | 0.00 | 79 | 1017.0 |
| 20260502100916 | 3 | 114 | 1.6 | 3.2 | 0.00 | 0.00 | 0.00 | 77 | 1016.9 |
| 20260502100411 | 3 | 78 | 3.2 | 4.8 | 0.00 | 0.00 | 0.00 | 78 | 1016.9 |
| 20260502091344 | 5 | 113 | 3.2 | 4.8 | 0.00 | 0.00 | 0.00 | 75 | 1017.0 |
| 20260502090842 | 5 | 75 | 0.0 | 0.0 | 0.00 | 0.00 | 0.00 | 71 | 1017.0 |
| 20260502090338 | 5 | 70 | 0.0 | 0.0 | 0.00 | 0.00 | 0.00 | 71 | 1017.0 |
| 20260502071233 | 4 | 146 | 1.6 | 1.6 | 0.00 | 0.00 | 0.00 | 82 | 1016.5 |
| 20260502070732 | 4 | 124 | 1.6 | 1.6 | 0.00 | 0.00 | 0.00 | 80 | 1016.7 |
| 20260502070229 | 5 | 128 | 0.0 | 1.6 | 0.00 | 0.00 | 0.00 | 77 | 1016.7 |
| 20260502065727 | 5 | 82 | 1.6 | 3.2 | 0.00 | 0.00 | 0.00 | 73 | 1016.5 |
| 20260502065225 | 5 | 123 | 1.6 | 1.6 | 0.00 | 0.00 | 0.00 | 75 | 1016.7 |
| 20260502064723 | 5 | 223 | 1.6 | 3.2 | 0.00 | 0.00 | 0.00 | 76 | 1016.7 |
| 20260502064220 | 5 | 259 | 1.6 | 3.2 | 0.00 | 0.00 | 0.00 | 75 | 1017.0 |
| 20260502063718 | 5 | 245 | 0.0 | 3.2 | 0.00 | 0.00 | 0.00 | 74 | 1016.7 |
| 20260502063216 | 5 | 112 | 1.6 | 3.2 | 0.00 | 0.00 | 0.00 | 75 | 1016.8 |
| 20260502062712 | 5 | 173 | 0.0 | 3.2 | 0.00 | 0.00 | 0.00 | 72 | 1016.8 |
| 20260502062210 | 5 | 183 | 1.6 | 3.2 | 0.00 | 0.00 | 0.00 | 73 | 1016.8 |
| 20260502061709 | 6 | 137 | 1.6 | 1.6 | 0.00 | 0.00 | 0.00 | 71 | 1016.9 |
| 20260502061205 | 6 | 151 | 1.6 | 4.8 | 0.00 | 0.00 | 0.00 | 70 | 1017.1 |
| 20260502060700 | 6 | 167 | 0.0 | 1.6 | 0.00 | 0.00 | 0.00 | 70 | 1016.9 |
| 20260502060157 | 6 | 313 | 1.6 | 3.2 | 0.00 | 0.00 | 0.00 | 67 | 1016.8 |
| 20260502055654 | 6 | 336 | 0.0 | 1.6 | 0.00 | 0.00 | 0.00 | 70 | 1016.9 |
| 20260502055152 | 6 | 166 | 3.2 | 12.9 | 0.00 | 0.00 | 0.00 | 70 | 1017.0 |
| 20260502054651 | 6 | 220 | 6.4 | 11.3 | 0.00 | 0.00 | 0.00 | 69 | 1016.9 |
| 20260502054148 | 6 | 184 | 1.6 | 4.8 | 0.00 | 0.00 | 0.00 | 68 | 1016.9 |
| 20260502053645 | 7 | 153 | 1.6 | 9.7 | 0.00 | 0.00 | 0.00 | 67 | 1016.9 |
| 20260502053142 | 7 | 148 | 6.4 | 12.9 | 0.00 | 0.00 | 0.00 | 69 | 1016.9 |
| 20260502052640 | 7 | 129 | 4.8 | 6.4 | 0.00 | 0.00 | 0.00 | 67 | 1016.9 |
| 20260502052138 | 7 | 156 | 0.0 | 6.4 | 0.00 | 0.00 | 0.00 | 67 | 1017.1 |
| 20260502051636 | 7 | 241 | 3.2 | 6.4 | 0.00 | 0.00 | 0.00 | 68 | 1017.1 |
| 20260502051134 | 7 | 208 | 3.2 | 4.8 | 0.00 | 0.00 | 0.00 | 69 | 1016.7 |
| 20260502050630 | 7 | 45 | 6.4 | 12.9 | 0.00 | 0.00 | 0.00 | 67 | 1016.7 |
| 20260502050127 | 7 | 153 | 1.6 | 6.4 | 0.00 | 0.00 | 0.00 | 70 | 1016.5 |
| 20260502045623 | 7 | 198 | 3.2 | 4.8 | 0.00 | 0.00 | 0.00 | 70 | 1016.9 |
| 20260502045121 | 7 | 203 | 4.8 | 14.5 | 0.00 | 0.00 | 0.00 | 70 | 1016.8 |
| 20260502044617 | 7 | 237 | 1.6 | 6.4 | 0.00 | 0.00 | 0.00 | 69 | 1016.9 |
| 20260502044114 | 7 | 191 | 1.6 | 9.7 | 0.00 | 0.00 | 0.00 | 73 | 1016.8 |
| 20260502043612 | 7 | 268 | 4.8 | 12.9 | 0.00 | 0.00 | 0.00 | 73 | 1016.7 |
| 20260502043108 | 7 | 330 | 1.6 | 4.8 | 0.00 | 0.00 | 0.00 | 75 | 1016.7 |
| 20260502042603 | 7 | 18 | 0.0 | 6.4 | 0.00 | 0.00 | 0.00 | 76 | 1016.7 |
| 20260502042101 | 7 | 123 | 0.0 | 1.6 | 0.00 | 0.00 | 0.00 | 76 | 1016.7 |
| 20260502041558 | 7 | 273 | 0.0 | 3.2 | 0.00 | 0.00 | 0.00 | 75 | 1016.7 |
| 20260502041055 | 8 | 224 | 3.2 | 17.7 | 0.00 | 0.00 | 0.00 | 70 | 1016.3 |
| 20260502040552 | 7 | 103 | 3.2 | 3.2 | 0.00 | 0.00 | 0.00 | 73 | 1016.3 |
| 20260502040049 | 7 | 82 | 3.2 | 3.2 | 0.00 | 0.00 | 0.00 | 75 | 1016.3 |
| 20260502035545 | 7 | 342 | 3.2 | 3.2 | 0.00 | 0.00 | 0.00 | 73 | 1016.2 |
| 20260502035043 | 7 | 65 | 1.6 | 4.8 | 0.00 | 0.00 | 0.00 | 74 | 1016.7 |
| 20260502034540 | 7 | 98 | 1.6 | 6.4 | 0.00 | 0.00 | 0.00 | 72 | 1016.7 |
| 20260502034038 | 8 | 172 | 0.0 | 3.2 | 0.00 | 0.00 | 0.00 | 72 | 1016.7 |
| 20260502033536 | 8 | 309 | 1.6 | 6.4 | 0.00 | 0.00 | 0.00 | 72 | 1016.4 |
| 20260502033033 | 8 | 179 | 9.7 | 12.9 | 0.00 | 0.00 | 0.00 | 71 | 1016.3 |
| 20260502032529 | 8 | 180 | 6.4 | 9.7 | 0.00 | 0.00 | 0.00 | 71 | 1016.5 |
| 20260502032026 | 7 | 114 | 3.2 | 6.4 | 0.00 | 0.00 | 0.00 | 71 | 1016.4 |
| 20260502031524 | 7 | 233 | 3.2 | 4.8 | 0.00 | 0.00 | 0.00 | 72 | 1016.3 |
| 20260502031022 | 7 | 305 | 0.0 | 6.4 | 0.00 | 0.00 | 0.00 | 72 | 1016.3 |
| 20260502030520 | 8 | 199 | 4.8 | 9.7 | 0.00 | 0.00 | 0.00 | 69 | 1016.4 |
| 20260502030017 | 8 | 183 | 9.7 | 12.9 | 0.00 | 0.00 | 0.00 | 70 | 1016.4 |
| 20260502025514 | 8 | 61 | 1.6 | 6.4 | 0.00 | 0.00 | 0.00 | 73 | 1016.1 |
| 20260502025013 | 8 | 241 | 1.6 | 3.2 | 0.00 | 0.00 | 0.00 | 70 | 1016.5 |
| 20260502024509 | 8 | 188 | 4.8 | 9.7 | 0.00 | 0.00 | 0.00 | 72 | 1016.3 |
| 20260502024008 | 8 | 266 | 11.3 | 14.5 | 0.00 | 0.00 | 0.00 | 73 | 1016.5 |
| 20260502023505 | 8 | 109 | 14.5 | 16.1 | 0.00 | 0.00 | 0.00 | 70 | 1016.4 |
| 20260502023002 | 8 | 12 | 1.6 | 6.4 | 0.00 | 0.00 | 0.00 | 71 | 1016.4 |
| 20260502022459 | 8 | 211 | 1.6 | 6.4 | 0.00 | 0.00 | 0.00 | 70 | 1016.4 |
| 20260502021956 | 8 | 195 | 3.2 | 4.8 | 0.00 | 0.00 | 0.00 | 73 | 1016.7 |
| 20260502021454 | 8 | 57 | 3.2 | 4.8 | 0.00 | 0.00 | 0.00 | 75 | 1016.4 |
| 20260502020950 | 8 | 20 | 0.0 | 1.6 | 0.00 | 0.00 | 0.00 | 77 | 1016.4 |
| 20260502020448 | 8 | 29 | 1.6 | 3.2 | 0.00 | 0.00 | 0.00 | 75 | 1016.2 |
| 20260502015944 | 8 | 73 | 1.6 | 3.2 | 0.00 | 0.00 | 0.00 | 74 | 1016.3 |
| 20260502015442 | 8 | 46 | 3.2 | 4.8 | 0.00 | 0.00 | 0.00 | 75 | 1016.4 |
| 20260502014939 | 8 | 22 | 3.2 | 3.2 | 0.00 | 0.00 | 0.00 | 73 | 1016.3 |
| 20260502014436 | 9 | 320 | 8.0 | 11.3 | 0.00 | 0.00 | 0.00 | 72 | 1016.0 |
| 20260502013932 | 9 | 349 | 3.2 | 4.8 | 0.00 | 0.00 | 0.00 | 73 | 1016.0 |
| 20260502013428 | 10 | 96 | 0.0 | 3.2 | 0.00 | 0.00 | 0.00 | 72 | 1015.9 |
| 20260502012924 | 10 | 193 | 11.3 | 16.1 | 0.00 | 0.00 | 0.00 | 71 | 1016.0 |
| 20260502012422 | 10 | 33 | 3.2 | 6.4 | 0.00 | 0.00 | 0.00 | 73 | 1015.7 |
| 20260502011919 | 10 | 345 | 1.6 | 4.8 | 0.00 | 0.00 | 0.00 | 73 | 1015.7 |
| 20260502011415 | 10 | 42 | 6.4 | 14.5 | 0.00 | 0.00 | 0.00 | 73 | 1015.6 |
| 20260502010913 | 10 | 29 | 3.2 | 17.7 | 0.00 | 0.00 | 0.00 | 71 | 1015.5 |
| 20260502010409 | 10 | 242 | 3.2 | 4.8 | 0.00 | 0.00 | 0.00 | 70 | 1015.4 |
| 20260502005906 | 11 | 270 | 1.6 | 3.2 | 0.00 | 0.00 | 0.00 | 68 | 1015.3 |
| 20260502005404 | 11 | 225 | 1.6 | 12.9 | 0.00 | 0.00 | 0.00 | 64 | 1015.3 |
| 20260502004901 | 11 | 189 | 4.8 | 6.4 | 0.00 | 0.00 | 0.00 | 63 | 1014.8 |
| 20260502004357 | 11 | 86 | 6.4 | 6.4 | 0.00 | 0.00 | 0.00 | 61 | 1014.5 |
| 20260502003854 | 11 | 353 | 0.0 | 3.2 | 0.00 | 0.00 | 0.00 | 64 | 1014.3 |
| 20260502003351 | 11 | 45 | 6.4 | 6.4 | 0.00 | 0.00 | 0.00 | 62 | 1014.3 |
| 20260502002848 | 11 | 38 | 8.0 | 9.7 | 0.00 | 0.00 | 0.00 | 60 | 1013.9 |
| 20260502002345 | 11 | 330 | 0.0 | 3.2 | 0.00 | 0.00 | 0.00 | 59 | 1014.1 |
| 20260502001842 | 12 | 21 | 3.2 | 4.8 | 0.00 | 0.00 | 0.00 | 59 | 1013.8 |
| 20260502001340 | 12 | 332 | 6.4 | 11.3 | 0.00 | 0.00 | 0.00 | 57 | 1013.8 |
| 20260502000837 | 12 | 24 | 6.4 | 14.5 | 0.00 | 0.00 | 0.00 | 56 | 1013.5 |
| 20260502000335 | 12 | 39 | 16.1 | 16.1 | 0.00 | 0.00 | 0.00 | 56 | 1013.6 |
| 20260501235831 | 12 | 259 | 3.2 | 9.7 | 0.00 | 0.00 | 0.00 | 52 | 1013.6 |
| 20260501235327 | 12 | 259 | 3.2 | 9.7 | 0.00 | 0.00 | 0.00 | 52 | 1013.6 |
| 20260501234822 | 12 | 165 | 1.6 | 3.2 | 0.00 | 0.00 | 0.00 | 51 | 1013.3 |
| 20260501234320 | 13 | 24 | 3.2 | 22.5 | 0.00 | 0.00 | 0.00 | 50 | 1013.2 |
| 20260501233818 | 13 | 285 | 4.8 | 11.3 | 0.00 | 0.00 | 0.00 | 49 | 1013.2 |
| 20260501233315 | 13 | 93 | 0.0 | 3.2 | 0.00 | 0.00 | 0.00 | 48 | 1013.2 |
| 20260501232811 | 13 | 305 | 6.4 | 9.7 | 0.00 | 0.00 | 0.00 | 46 | 1013.3 |
| 20260501232308 | 13 | 272 | 8.0 | 16.1 | 0.00 | 0.00 | 0.00 | 47 | 1012.9 |
| 20260501231806 | 13 | 249 | 3.2 | 4.8 | 0.00 | 0.00 | 0.00 | 45 | 1013.0 |
| 20260501231304 | 15 | 189 | 3.2 | 9.7 | 0.00 | 0.00 | 0.00 | 42 | 1012.8 |
| 20260501230802 | 15 | 209 | 3.2 | 6.4 | 0.00 | 0.00 | 0.00 | 41 | 1012.6 |
| 20260501230300 | 15 | 130 | 8.0 | 9.7 | 0.00 | 0.00 | 0.00 | 42 | 1012.7 |
| 20260501225757 | 15 | 234 | 4.8 | 11.3 | 0.00 | 0.00 | 0.00 | 39 | 1012.6 |
| 20260501225255 | 15 | 269 | 1.6 | 6.4 | 0.00 | 0.00 | 0.00 | 37 | 1012.4 |
| 20260501224751 | 15 | 214 | 4.8 | 6.4 | 0.00 | 0.00 | 0.00 | 37 | 1012.5 |